Wind_Speed
10 11 10 10 11 10 10 10 9 8 8 7 6 5 4 4 4 4 5 5 6 6 7 7 8 8 9 9 10 11 11 12 13 13 13 14 15 16 17 18 19 20 21
11 11 10 11 10 10 10 9 9 8 7 7 6 6 5 5 5 5 6 6 7 8 8 8 9 9 10 11 11 12 13 13 14 14 14 15 16 16 17 18 19 20 21
10 11 11 11 11 11 10 9 9 8 8 8 8 7 7 7 7 7 8 8 9 9 9 10 10 11 11 12 13 14 15 15 16 16 16 16 17 18 19 19 20 20 21
10 10 10 10 11 11 10 10 9 9 9 9 9 9 9 9 9 10 10 10 11 11 11 12 12 12 13 14 15 15 16 17 17 18 18 18 19 19 20 20 21 22 22
11 11 10 10 11 11 11 11 10 10 11 11 11 11 11 11 12 12 12 13 13 13 14 14 14 15 15 16 16 17 17 18 18 19 19 20 21 21 21 22 23 24 24
12 12 12 12 12 12 12 12 12 12 12 13 13 13 13 14 14 14 15 15 15 16 16 16 17 17 18 18 18 19 19 19 20 20 21 21 22 23 23 24 24 25 26
13 13 13 13 13 13 13 13 13 13 14 14 14 15 15 16 16 16 16 17 17 18 18 19 19 19 20 20 21 21 21 21 22 22 22 23 24 25 25 26 26 27 27
13 13 13 14 14 14 15 15 15 15 15 16 16 16 17 18 18 18 19 19 20 20 21 21 21 22 22 23 23 23 23 24 25 25 25 26 26 27 27 27 28 29 29
14 14 14 15 15 15 15 16 16 16 17 17 18 18 19 19 20 20 21 21 22 22 23 23 23 24 24 25 25 25 26 26 27 28 28 28 29 29 29 29 30 30 31
16 16 16 16 16 16 16 17 17 18 18 19 19 20 20 21 22 22 23 23 24 24 25 25 25 26 26 27 27 27 27 28 29 30 30 30 31 31 32 32 32 32 33
18 18 17 18 18 18 18 18 19 19 20 20 21 22 22 23 24 25 25 26 26 26 26 27 27 28 28 28 29 29 30 30 31 32 32 33 34 34 34 35 35 36 36
19 19 20 20 20 20 20 21 21 21 21 22 22 23 24 25 26 27 27 27 27 28 28 29 29 30 31 31 32 32 32 33 34 34 35 36 36 37 37 37 38 38 38
22 21 21 21 22 22 22 23 23 23 23 24 24 25 25 26 27 27 28 29 29 29 30 31 32 32 33 34 35 35 35 36 37 37 37 38 39 39 39 40 40 41 40
23 22 21 22 23 23 23 24 25 25 25 25 26 26 27 27 28 29 30 30 31 32 32 33 34 35 35 35 37 37 38 39 39 39 40 40 41 41 42 42 42 42 42
23 24 23 23 24 24 25 25 26 26 27 27 27 28 29 30 31 32 32 33 34 34 35 35 36 37 38 39 39 40 41 41 42 42 42 43 43 43 44 44 44 44 44
24 24 24 24 25 26 27 27 27 28 28 28 30 30 31 33 34 34 35 36 36 37 37 39 39 40 41 42 42 43 43 43 44 44 45 45 45 45 45 46 46 45 45
25 26 26 26 27 27 28 29 29 30 31 31 32 33 34 35 36 36 37 38 38 39 40 40 41 42 43 44 44 44 44 45 46 46 46 46 46 46 47 46 47 47 47
26 27 27 28 28 29 29 30 31 32 33 33 34 35 36 37 38 38 39 40 40 41 42 42 42 43 43 44 45 45 46 47 48 48 49 48 48 48 48 48 48 47 47
28 28 29 29 30 30 31 32 34 34 35 36 36 37 38 39 39 40 41 42 42 43 43 43 44 44 45 45 46 46 47 48 48 49 49 49 49 49 48 48 48 47 46
30 30 31 32 32 33 33 34 35 36 37 37 38 39 40 41 41 42 42 43 43 44 45 45 45 46 46 47 47 47 48 48 49 49 48 48 48 48 48 47 47 46 46
32 32 32 33 33 34 35 36 37 38 39 39 40 41 42 42 43 44 44 45 45 45 46 46 47 47 47 48 48 48 48 48 48 48 48 48 48 48 48 47 47 47 46
32 33 33 34 35 36 36 38 39 40 40 40 42 43 44 44 44 45 46 46 46 47 47 47 47 47 47 48 48 48 48 48 49 49 49 49 49 48 47 46 46 46 45
33 33 34 35 36 37 38 39 40 41 42 43 44 45 45 45 46 46 46 47 47 48 48 47 47 47 47 47 48 48 48 48 49 49 49 49 49 47 46 45 45 44 44
33 34 35 36 37 38 39 40 41 42 43 44 45 46 46 46 46 46 46 47 47 47 47 48 48 48 48 48 48 49 49 49 50 50 49 48 48 46 45 44 43 43 43
34 35 37 38 38 38 39 41 42 43 45 46 46 46 47 47 47 47 47 47 47 48 48 49 48 48 48 48 48 49 49 49 49 49 48 47 46 44 44 43 42 41 40
36 37 38 38 39 40 42 43 44 45 45 46 47 47 48 48 47 47 47 46 47 47 47 48 47 47 47 48 48 48 47 47 46 46 45 44 43 41 41 41 40 39 37
Wind_Direction
190 190 190 191 193 196 199 201 203 207 213 219 225 233 241 253 262 267 274 281 285 291 296 297 297 298 299 300 301 303 303 303 301 300 297 295 292 291 289 287 283 280 278
195 197 197 197 196 195 198 202 204 208 216 225 233 239 251 260 266 271 277 282 286 290 293 294 295 296 298 300 301 303 305 305 304 302 300 297 295 293 291 290 288 285 282
201 203 205 206 206 204 203 208 214 220 226 235 243 249 258 264 268 271 275 281 286 290 292 293 295 296 297 299 300 302 304 305 305 304 303 300 297 293 291 290 288 287 285
206 207 208 209 213 212 215 220 224 228 235 244 250 256 261 268 272 275 277 281 285 287 289 291 294 296 298 299 300 301 303 303 303 303 303 302 301 297 294 292 290 290 287
212 214 217 219 221 224 228 232 234 239 245 250 255 259 263 268 273 276 278 281 284 286 288 290 293 295 297 298 299 300 301 302 302 301 301 301 301 300 297 295 293 292 291
218 221 226 228 230 234 237 241 244 248 252 255 259 263 266 270 274 278 279 281 283 285 286 289 291 293 295 297 298 298 299 300 300 299 299 299 299 299 298 297 295 293 292
225 228 232 235 238 241 244 246 249 252 255 260 263 266 269 272 276 280 282 283 284 285 286 288 289 291 293 295 296 296 297 298 299 299 299 299 299 299 298 297 296 295 293
232 236 239 242 244 247 249 251 254 256 259 263 267 269 271 274 276 279 282 283 284 286 287 287 288 289 292 293 293 294 295 296 298 299 299 299 299 299 299 298 297 295 294
238 242 245 247 248 251 252 253 256 260 263 266 269 271 274 276 278 279 282 284 284 285 286 287 288 289 290 291 291 292 293 294 295 296 297 298 298 298 298 298 297 295 295
241 244 247 249 251 254 257 258 260 263 266 268 271 273 275 276 278 280 283 285 285 286 286 287 288 289 289 290 290 291 292 293 294 295 296 297 297 297 297 297 297 296 295
242 246 250 252 254 257 260 262 264 267 269 271 272 273 275 278 279 281 283 285 286 286 286 287 287 288 288 289 289 290 291 292 293 294 295 296 296 297 297 297 296 296 295
245 248 251 254 257 259 261 264 267 270 272 273 273 274 276 279 280 281 284 286 286 286 286 287 289 289 288 288 289 290 291 291 293 294 294 295 295 296 297 296 296 295 295
248 250 253 257 260 261 263 265 267 271 273 274 275 276 278 280 283 283 284 286 287 287 287 288 289 290 291 290 289 290 291 292 293 294 294 294 294 295 295 295 295 294 293
251 253 257 258 260 262 266 268 270 272 274 275 276 277 279 281 282 283 284 284 285 286 287 288 289 290 291 292 291 290 291 292 294 294 294 294 294 293 294 294 294 293 293
255 255 256 259 262 265 269 271 273 275 277 277 277 278 280 281 282 283 283 285 286 287 288 289 289 290 291 291 291 291 291 292 293 293 294 294 293 293 294 294 294 294 293
258 258 259 260 263 266 269 271 273 275 276 276 277 279 280 281 283 284 284 285 287 288 288 289 290 290 290 290 291 290 291 291 292 292 293 293 293 293 294 294 294 293 293
260 262 262 263 265 268 269 271 274 275 276 277 278 279 280 280 282 284 285 286 287 288 289 289 289 290 290 291 291 291 291 292 293 293 293 293 293 293 293 293 293 293 292
261 264 265 265 267 269 270 273 275 277 278 278 279 280 281 282 283 284 286 286 287 288 288 288 289 290 290 291 291 291 291 292 292 292 292 292 292 292 293 293 293 293 292
263 265 267 269 270 271 273 275 277 278 280 280 281 282 282 283 284 285 286 286 286 287 287 288 288 289 290 291 291 291 292 292 292 293 293 292 292 292 292 292 292 291 291
265 267 269 270 272 274 275 277 277 279 281 282 282 282 283 284 285 285 285 286 287 287 288 289 290 291 291 291 291 291 292 292 292 293 293 292 292 292 292 292 291 290 291
267 268 270 272 273 275 277 278 278 279 281 282 282 282 283 284 285 285 286 287 287 288 289 290 290 291 292 292 292 292 291 291 292 293 293 292 292 292 292 291 291 290 291
270 271 272 274 275 275 277 279 279 280 280 281 283 284 284 285 286 286 286 287 288 288 289 291 291 291 291 291 291 291 292 292 292 293 293 293 293 292 291 291 291 291 290
271 272 273 275 275 276 277 278 279 280 281 282 283 285 286 285 285 285 286 287 288 289 290 290 291 291 291 291 291 291 291 292 292 293 292 293 293 292 291 291 291 290 289
273 273 274 275 276 277 278 279 281 281 282 283 284 285 285 286 286 286 287 289 290 290 291 291 291 291 291 291 291 292 292 292 293 293 293 292 292 291 290 291 291 290 289
276 276 276 277 278 279 280 281 282 283 284 284 284 286 286 287 287 287 288 289 290 290 291 291 291 291 291 292 292 292 292 292 293 294 293 292 292 290 289 290 291 291 290
277 278 279 279 280 281 282 283 283 284 285 285 286 287 288 288 287 287 288 288 289 290 290 291 291 292 293 294 293 293 293 293 293 294 293 293 292 291 290 290 290 290 289
Height
5831 5832 5834 5835 5837 5839 5841 5843 5844 5846 5847 5848 5848 5849 5849 5850 5850 5850 5850 5850 5850 5850 5849 5849 5848 5847 5847 5846 5845 5844 5843 5842 5841 5840 5838 5837 5836 5835 5834 5833 5833 5832 5831
5830 5832 5833 5835 5836 5838 5840 5842 5843 5844 5845 5846 5847 5848 5848 5848 5849 5849 5849 5849 5848 5848 5847 5847 5846 5845 5844 5843 5843 5841 5840 5839 5838 5836 5835 5834 5832 5831 5830 5829 5828 5826 5826
5829 5830 5832 5834 5835 5837 5839 5840 5842 5843 5844 5845 5846 5846 5847 5847 5847 5847 5847 5846 5846 5845 5845 5844 5843 5843 5842 5841 5840 5838 5837 5836 5834 5833 5831 5830 5828 5827 5825 5824 5822 5821 5820
5828 5829 5831 5832 5834 5836 5837 5839 5840 5841 5842 5843 5844 5844 5845 5845 5845 5845 5844 5844 5843 5843 5842 5841 5840 5840 5839 5837 5836 5835 5833 5832 5830 5829 5827 5825 5823 5822 5820 5819 5817 5816 5814
5826 5828 5830 5831 5833 5834 5836 5837 5838 5839 5840 5841 5842 5842 5842 5842 5842 5842 5841 5841 5840 5840 5839 5838 5837 5836 5835 5834 5832 5831 5829 5828 5826 5824 5823 5821 5819 5817 5815 5814 5812 5810 5808
5825 5826 5828 5829 5831 5832 5833 5834 5835 5836 5837 5838 5838 5839 5839 5839 5839 5838 5838 5837 5837 5836 5835 5834 5833 5832 5830 5829 5828 5826 5825 5823 5821 5819 5818 5816 5814 5811 5810 5808 5806 5804 5802
5822 5824 5825 5827 5828 5830 5831 5832 5832 5833 5834 5834 5835 5835 5835 5835 5834 5834 5834 5833 5832 5832 5831 5830 5828 5827 5826 5824 5823 5821 5820 5818 5816 5814 5812 5810 5808 5806 5804 5801 5799 5797 5795
5820 5821 5822 5824 5825 5826 5827 5828 5829 5829 5830 5830 5831 5831 5831 5830 5830 5830 5829 5828 5828 5827 5825 5824 5823 5822 5820 5819 5817 5815 5814 5812 5810 5808 5806 5804 5801 5799 5797 5795 5792 5790 5787
5816 5818 5819 5820 5821 5822 5823 5824 5824 5825 5825 5826 5826 5826 5826 5826 5825 5825 5824 5823 5822 5821 5820 5819 5817 5816 5814 5813 5811 5809 5808 5805 5803 5801 5799 5797 5794 5791 5789 5786 5784 5782 5779
5812 5814 5815 5817 5817 5818 5819 5820 5820 5820 5820 5821 5821 5821 5821 5820 5820 5819 5818 5817 5817 5815 5814 5812 5811 5809 5808 5806 5804 5803 5801 5798 5796 5794 5791 5789 5786 5783 5780 5777 5775 5772 5770
5808 5809 5811 5812 5813 5813 5814 5815 5815 5815 5815 5815 5815 5815 5814 5814 5813 5813 5812 5811 5810 5808 5807 5805 5804 5802 5800 5798 5797 5795 5793 5790 5788 5785 5783 5780 5777 5774 5771 5768 5765 5762 5760
5803 5804 5805 5806 5807 5808 5809 5809 5809 5809 5809 5809 5808 5808 5808 5807 5807 5806 5805 5804 5802 5801 5799 5798 5796 5794 5792 5790 5788 5786 5784 5781 5779 5776 5773 5770 5767 5764 5761 5758 5754 5751 5749
5797 5798 5799 5800 5801 5802 5802 5803 5803 5803 5803 5802 5802 5801 5801 5800 5799 5798 5797 5796 5794 5793 5791 5789 5787 5785 5783 5781 5778 5776 5773 5771 5768 5766 5763 5760 5757 5754 5750 5747 5743 5740 5737
5791 5792 5793 5794 5795 5796 5796 5796 5796 5796 5796 5795 5795 5794 5793 5792 5791 5790 5789 5787 5786 5784 5782 5780 5778 5776 5773 5771 5768 5765 5763 5760 5757 5755 5752 5749 5745 5742 5739 5735 5732 5728 5725
5785 5786 5787 5788 5789 5789 5790 5790 5789 5789 5788 5788 5787 5786 5785 5784 5783 5781 5780 5778 5776 5775 5773 5771 5768 5766 5763 5760 5757 5754 5751 5748 5745 5742 5739 5736 5733 5729 5726 5722 5719 5715 5712
5779 5779 5780 5781 5782 5782 5783 5782 5782 5781 5781 5780 5779 5778 5777 5775 5774 5772 5771 5769 5767 5765 5763 5760 5757 5754 5752 5748 5745 5742 5739 5736 5732 5729 5726 5723 5719 5716 5713 5709 5705 5702 5698
5772 5773 5774 5774 5774 5775 5775 5774 5774 5773 5772 5771 5770 5768 5767 5766 5764 5762 5760 5758 5756 5754 5751 5749 5746 5743 5740 5736 5733 5729 5726 5723 5719 5716 5713 5709 5706 5702 5699 5695 5691 5688 5685
5765 5765 5766 5766 5766 5766 5766 5766 5765 5764 5763 5761 5760 5758 5757 5755 5753 5751 5749 5747 5745 5742 5739 5737 5734 5730 5727 5724 5720 5717 5713 5710 5706 5702 5699 5695 5692 5688 5684 5681 5677 5673 5670
5757 5758 5758 5758 5758 5757 5757 5756 5755 5754 5753 5751 5750 5748 5746 5744 5742 5740 5737 5735 5733 5730 5727 5724 5721 5718 5714 5711 5707 5703 5699 5696 5692 5688 5684 5681 5677 5673 5669 5666 5662 5659 5655
5749 5749 5749 5749 5748 5748 5747 5746 5745 5744 5742 5740 5739 5737 5735 5733 5730 5728 5725 5723 5720 5717 5714 5711 5708 5704 5700 5697 5693 5689 5686 5682 5678 5674 5670 5666 5662 5658 5654 5651 5648 5644 5641
5740 5740 5740 5739 5738 5737 5736 5735 5734 5732 5731 5729 5727 5725 5723 5721 5718 5716 5713 5710 5707 5704 5700 5697 5694 5690 5686 5682 5678 5675 5671 5667 5663 5660 5656 5652 5647 5644 5640 5636 5633 5630 5627
5731 5730 5730 5729 5728 5727 5726 5724 5722 5721 5719 5717 5715 5712 5710 5708 5705 5702 5699 5696 5693 5690 5687 5683 5680 5676 5672 5668 5664 5661 5657 5653 5649 5645 5642 5637 5633 5629 5625 5622 5619 5616 5613
5720 5720 5719 5718 5717 5716 5714 5713 5711 5709 5707 5705 5702 5699 5697 5694 5692 5689 5685 5682 5679 5676 5673 5669 5666 5662 5658 5654 5650 5646 5642 5639 5635 5631 5627 5623 5619 5615 5611 5608 5605 5602 5599
5711 5710 5709 5708 5706 5704 5703 5701 5699 5697 5694 5692 5689 5686 5684 5681 5678 5675 5672 5669 5665 5662 5658 5655 5651 5648 5644 5640 5635 5631 5628 5624 5620 5616 5612 5608 5604 5600 5597 5594 5591 5588 5585
5700 5699 5698 5697 5695 5693 5691 5689 5687 5684 5682 5679 5676 5673 5670 5667 5664 5661 5658 5655 5651 5648 5644 5640 5637 5633 5629 5625 5621 5617 5613 5609 5605 5600 5597 5593 5590 5586 5583 5580 5577 5575 5572
5690 5688 5686 5685 5683 5681 5678 5676 5674 5671 5668 5665 5662 5659 5656 5653 5650 5646 5643 5640 5637 5633 5630 5626 5622 5618 5614 5610 5606 5602 5598 5594 5590 5586 5582 5579 5576 5573 5570 5567 5564 5562 5559